Location: Newark
(45.7425°N, 0.7617°W)
Time: 02:28:38
(UTC+00:00)

N. Korean satellite - Pass Details

Date: 29 January 2020
Orbit: 456 x 505 km, 97.2° (Epoch: 26 February)

Event Time Altitude Azimuth Distance (km) Brightness Sun altitude
Rises 17:45:26 0° 197° (SSW) 2,461 10.7 -7.6°
Reaches altitude 10° 17:47:47 10° 214° (SSW) 1,595 10.0 -8.0°
Maximum altitude 17:50:29 22° 266° (W) 1,067 9.4 -8.4°
Drops below altitude 10° 17:53:13 10° 318° (NW) 1,616 9.6 -8.9°
Sets 17:55:37 0° 335° (NNW) 2,504 10.3 -9.3°
